Regional Weather Roundup
Issued by NWS

Home | Current Version | Previous Version | Text Only | Print | Product List | Glossary Off
Versions: 1 2 3 4 5 6 7 8 9 10 11 12 13 14 15 16 17 18 19 20 21 22 23 24 25 26 27 28 29 30 31 32 33 34 35 36 37 38 39 40 41 42 43 44 45 46 47 48 49 50

000
ASUS43 KFSD 242002
RWRSD

WEATHER ROUNDUP FOR SOUTH DAKOTA
NATIONAL WEATHER SERVICE SIOUX FALLS SD
300 PM CDT MON APR 24 2017

NOTE: "FAIR" INDICATES FEW OR NO CLOUDS BELOW 12,000 FEET WITH NO
SIGNIFICANT WEATHER AND/OR OBSTRUCTIONS TO VISIBILITY.


SDZ001>005-009-010-012>017-242100-
NORTHWEST AND NORTH CENTRAL SOUTH DAKOTA

CITY           SKY/WX    TMP DP  RH WIND       PRES   REMARKS
BUFFALO          N/A     52  41  66 NW16      29.55R
FAITH            N/A     53  42  66 N15G25    29.59S
MOBRIDGE       CLOUDY    48  34  58 N16       29.58R
$$

SDZ012>016-024>037-041>051-057-063-072>074-242100-
SOUTHWEST AND SOUTH CENTRAL SOUTH DAKOTA

CITY           SKY/WX    TMP DP  RH WIND       PRES   REMARKS
RAPID CTY ARPT MOSUNNY   60  41  49 N26G32    29.57F
PIERRE         CLOUDY    47  37  68 NW12      29.59S
CUSTER         PTSUNNY   51  36  56 SE7       29.61R
ELLSWORTH AFB  CLOUDY    58  40  51 N25G31    29.57F
PHILIP         MOSUNNY   57  42  57 NW14      29.60F
PINE RIDGE     MOSUNNY   61  42  49 NW7       29.60F
SPEARFISH      FAIR      55  39  54 NW14      29.63R
WINNER         CLOUDY    50  38  63 NW15G24   29.59F
$$

SDZ004>011-016>023-039-040-242100-
NORTHEAST SOUTH DAKOTA

CITY           SKY/WX    TMP DP  RH WIND       PRES   REMARKS
ABERDEEN       CLOUDY    50  37  61 N17G25    29.54R
WATERTOWN      CLOUDY    62  41  46 S21       29.49S
SISSETON         N/A     62  42  47 SW13      29.49R
$$

SDZ017-020-022-023-036>040-048>070-242100-
SOUTHEAST SOUTH DAKOTA

CITY           SKY/WX    TMP DP  RH WIND       PRES   REMARKS
SIOUX FALLS    CLOUDY    62  46  55 S7        29.55F
HURON          CLOUDY    56  42  59 NW16      29.52R
CHAMBERLAIN    CLOUDY    49  40  73 W16       29.59R
MITCHELL       CLOUDY    59  42  53 W16       29.53S
YANKTON        CLOUDY    66  43  42 W9        29.50F
$$

ABBREVIATIONS USED IN REMARKS
   TC - TEMPERATURE IN CELSIUS
  WCI - WIND CHILL INDEX
   HX - HEAT INDEX
  VSB - VISIBILITY





USA.gov is the U.S. government's official web portal to all federal, state and local government web resources and services.